TimeCST,TemperatureF,Dew PointF,Humidity,Sea Level PressureIn,VisibilityMPH,Wind Direction,Wind SpeedMPH,Gust SpeedMPH,PrecipitationIn,Events,Conditions,WindDirDegrees,DateUTC
12:53 AM,19.0,12.0,74,30.28,10.0,Calm,Calm,-,N/A,,Clear,0,2013-01-23 06:53:00
1:53 AM,17.1,12.0,81,30.26,10.0,South,4.6,-,N/A,,Clear,190,2013-01-23 07:53:00
2:53 AM,19.9,12.0,71,30.25,10.0,Calm,Calm,-,N/A,,Clear,0,2013-01-23 08:53:00
3:53 AM,16.0,12.0,84,30.24,10.0,South,3.5,-,N/A,,Clear,190,2013-01-23 09:53:00
4:53 AM,17.1,10.9,77,30.23,10.0,Calm,Calm,-,N/A,,Clear,0,2013-01-23 10:53:00
5:53 AM,18.0,10.9,74,30.25,10.0,Calm,Calm,-,N/A,,Clear,0,2013-01-23 11:53:00
6:53 AM,17.1,10.9,77,30.25,10.0,Calm,Calm,-,N/A,,Clear,0,2013-01-23 12:53:00
7:53 AM,16.0,10.9,81,30.24,9.0,South,5.8,-,N/A,,Clear,190,2013-01-23 13:53:00
8:53 AM,23.0,16.0,74,30.23,9.0,South,4.6,-,N/A,,Clear,180,2013-01-23 14:53:00
9:53 AM,30.9,21.9,69,30.24,9.0,Calm,Calm,-,N/A,,Clear,0,2013-01-23 15:53:00
10:53 AM,39.0,26.1,60,30.25,10.0,West,3.5,-,N/A,,Clear,270,2013-01-23 16:53:00
11:53 AM,42.1,26.1,53,30.24,10.0,NNW,5.8,-,N/A,,Clear,330,2013-01-23 17:53:00
12:53 PM,43.0,24.1,47,30.22,10.0,North,6.9,-,N/A,,Clear,10,2013-01-23 18:53:00
1:53 PM,45.0,24.1,44,30.20,10.0,North,8.1,-,N/A,,Clear,350,2013-01-23 19:53:00
2:53 PM,46.9,23.0,39,30.19,10.0,NNE,3.5,-,N/A,,Clear,20,2013-01-23 20:53:00
3:53 PM,48.0,23.0,37,30.22,10.0,NNE,13.8,-,N/A,,Clear,30,2013-01-23 21:53:00
4:53 PM,45.0,21.0,39,30.25,10.0,NE,11.5,-,0.00,,Clear,40,2013-01-23 22:53:00
5:53 PM,42.1,21.0,43,30.29,10.0,NNE,12.7,-,N/A,,Clear,30,2013-01-23 23:53:00
6:53 PM,37.0,21.0,52,30.33,10.0,NNE,12.7,-,N/A,,Clear,30,2013-01-24 00:53:00
7:53 PM,34.0,19.0,54,30.35,10.0,NNE,13.8,-,N/A,,Clear,30,2013-01-24 01:53:00
8:53 PM,30.9,17.1,57,30.38,10.0,NNE,16.1,24.2,N/A,,Clear,30,2013-01-24 02:53:00
9:53 PM,28.9,17.1,61,30.40,10.0,NNE,16.1,-,0.00,,Clear,30,2013-01-24 03:53:00
10:53 PM,28.0,16.0,61,30.44,10.0,NNE,13.8,-,N/A,,Clear,30,2013-01-24 04:53:00
11:53 PM,26.1,16.0,66,30.43,10.0,NE,10.4,-,N/A,,Clear,40,2013-01-24 05:53:00